2015-02-06 00:03:29 r, 15.09m,0000000082Hz,0000005638c,0000000.012s, 004.1C,00002195
2015-02-06 00:13:29 r, 14.99m,0000000090Hz,0000005176c,0000000.011s, 004.1C,00002195
2015-02-06 00:23:29 r, 14.93m,0000000094Hz,0000004882c,0000000.011s, 003.8C,00002195
2015-02-06 00:33:29 r, 14.92m,0000000094Hz,0000004839c,0000000.011s, 003.5C,00002195
2015-02-06 00:43:29 r, 14.86m,0000000101Hz,0000004579c,0000000.010s, 003.5C,00002195
2015-02-06 00:53:29 r, 14.78m,0000000108Hz,0000004284c,0000000.009s, 003.5C,00002195
2015-02-06 01:03:29 r, 14.90m,0000000096Hz,0000004794c,0000000.010s, 003.5C,00002195
2015-02-06 01:13:29 r, 14.95m,0000000092Hz,0000004977c,0000000.011s, 003.5C,00002195
2015-02-06 01:23:29 r, 14.93m,0000000094Hz,0000004922c,0000000.011s, 003.5C,00002195
2015-02-06 01:33:29 r, 14.90m,0000000096Hz,0000004767c,0000000.010s, 003.2C,00002195
2015-02-06 01:43:29 r, 14.99m,0000000089Hz,0000005162c,0000000.011s, 003.2C,00002195
2015-02-06 01:53:29 r, 14.87m,0000000100Hz,0000004638c,0000000.010s, 003.2C,00002195
2015-02-06 02:03:29 r, 14.75m,0000000111Hz,0000004141c,0000000.009s, 003.2C,00002195
2015-02-06 02:13:29 r, 14.80m,0000000105Hz,0000004326c,0000000.009s, 003.2C,00002195
2015-02-06 02:23:29 r, 14.76m,0000000109Hz,0000004188c,0000000.009s, 003.2C,00002195
2015-02-06 02:33:29 r, 14.56m,0000000134Hz,0000000000c,0000000.000s, 002.9C,00002195
2015-02-06 02:43:29 r, 14.48m,0000000143Hz,0000000000c,0000000.000s, 002.9C,00002195
2015-02-06 02:53:29 r, 14.28m,0000000172Hz,0000000000c,0000000.000s, 003.2C,00002195
2015-02-06 03:03:29 r, 14.20m,0000000186Hz,0000000000c,0000000.000s, 003.2C,00002195
2015-02-06 03:13:29 r, 14.20m,0000000186Hz,0000000000c,0000000.000s, 002.9C,00002195
2015-02-06 03:23:29 r, 14.21m,0000000183Hz,0000000000c,0000000.000s, 003.2C,00002195
2015-02-06 03:33:29 r, 14.28m,0000000173Hz,0000000000c,0000000.000s, 003.2C,00002195
2015-02-06 03:43:29 r, 14.65m,0000000123Hz,0000003763c,0000000.008s, 003.2C,00002195
2015-02-06 03:53:29 r, 14.78m,0000000109Hz,0000004282c,0000000.009s, 003.2C,00002195
2015-02-06 04:03:29 r, 14.70m,0000000116Hz,0000003964c,0000000.009s, 003.5C,00002195
2015-02-06 04:13:29 r, 14.65m,0000000122Hz,0000003776c,0000000.008s, 003.2C,00002195
2015-02-06 04:23:29 r, 14.55m,0000000135Hz,0000000000c,0000000.000s, 003.2C,00002195
2015-02-06 04:33:29 r, 14.51m,0000000140Hz,0000000000c,0000000.000s, 003.2C,00002195
2015-02-06 04:43:29 r, 14.48m,0000000144Hz,0000000000c,0000000.000s, 002.9C,00002195
2015-02-06 04:53:29 r, 14.52m,0000000138Hz,0000000000c,0000000.000s, 002.9C,00002195
2015-02-06 05:03:29 r, 14.53m,0000000137Hz,0000000000c,0000000.000s, 002.9C,00002195
2015-02-06 05:13:29 r, 14.59m,0000000130Hz,0000000000c,0000000.000s, 002.5C,00002195
2015-02-06 05:23:29 r, 14.62m,0000000127Hz,0000003652c,0000000.008s, 002.5C,00002195
2015-02-06 05:33:29 r, 14.67m,0000000120Hz,0000003834c,0000000.008s, 002.5C,00002195
2015-02-06 05:43:29 r, 14.97m,0000000091Hz,0000005109c,0000000.011s, 002.5C,00002195
2015-02-06 05:53:29 r, 14.75m,0000000112Hz,0000004128c,0000000.009s, 002.5C,00002195
2015-02-06 06:03:29 r, 14.43m,0000000151Hz,0000000000c,0000000.000s, 002.2C,00002195
2015-02-06 06:13:29 r, 14.57m,0000000132Hz,0000000000c,0000000.000s, 002.2C,00002195
2015-02-06 06:23:29 r, 14.54m,0000000136Hz,0000000000c,0000000.000s, 002.2C,00002195
2015-02-06 06:33:29 r, 14.43m,0000000150Hz,0000000000c,0000000.000s, 002.2C,00002195
2015-02-06 06:43:29 r, 14.33m,0000000164Hz,0000000000c,0000000.000s, 002.5C,00002195
2015-02-06 06:53:29 r, 14.31m,0000000168Hz,0000000000c,0000000.000s, 002.5C,00002195
2015-02-06 07:03:29 r, 14.24m,0000000178Hz,0000000000c,0000000.000s, 002.5C,00002195
2015-02-06 07:13:29 r, 13.94m,0000000235Hz,0000000000c,0000000.000s, 002.5C,00002195
2015-02-06 07:23:29 r, 12.82m,0000000662Hz,0000000000c,0000000.000s, 002.5C,00002195
2015-02-06 07:33:29 r, 10.99m,0000003568Hz,0000000000c,0000000.000s, 002.5C,00002195
2015-02-06 07:43:29 r, 09.22m,0000018311Hz,0000000000c,0000000.000s, 002.5C,00002195
2015-02-06 07:53:29 r, 07.91m,0000060964Hz,0000000000c,0000000.000s, 002.5C,00002195
2015-02-06 08:03:29 r, 07.04m,0000136913Hz,0000000000c,0000000.000s, 002.5C,00002195
2015-02-06 08:13:29 r, 06.44m,0000236315Hz,0000000000c,0000000.000s, 002.5C,00002195
2015-02-06 08:23:29 r, 00.00m,0000431750Hz,0000000000c,0000000.000s, 002.5C,00002195
2015-02-06 08:33:29 r, 00.00m,0000560774Hz,0000000000c,0000000.000s, 002.5C,00002195
2015-02-06 08:43:29 r, 00.00m,0000560898Hz,0000000000c,0000000.000s, 002.5C,00002195
2015-02-06 08:53:29 r, 00.00m,0000560796Hz,0000000000c,0000000.000s, 002.5C,00002195
2015-02-06 09:03:29 r, 00.00m,0000560840Hz,0000000000c,0000000.000s, 002.9C,00002195
2015-02-06 09:13:29 r, 00.00m,0000560788Hz,0000000000c,0000000.000s, 003.2C,00002195
2015-02-06 09:23:29 r, 00.00m,0000560877Hz,0000000000c,0000000.000s, 003.5C,00002195
2015-02-06 09:33:29 r, 00.00m,0000560983Hz,0000000000c,0000000.000s, 003.8C,00002195
2015-02-06 09:43:29 r, 00.00m,0000561101Hz,0000000000c,0000000.000s, 003.8C,00002195
2015-02-06 09:53:29 r, 00.00m,0000561169Hz,0000000000c,0000000.000s, 004.1C,00002195
2015-02-06 10:03:29 r, 00.00m,0000561184Hz,0000000000c,0000000.000s, 004.5C,00002195
2015-02-06 10:13:29 r, 00.00m,0000561302Hz,0000000000c,0000000.000s, 005.1C,00002195
2015-02-06 10:23:29 r, 00.00m,0000561323Hz,0000000000c,0000000.000s, 005.8C,00002195
2015-02-06 10:33:29 r, 00.00m,0000561435Hz,0000000000c,0000000.000s, 006.1C,00002195
2015-02-06 10:43:29 r, 00.00m,0000561423Hz,0000000000c,0000000.000s, 006.1C,00002195
2015-02-06 10:53:29 r, 00.00m,0000561430Hz,0000000000c,0000000.000s, 006.4C,00002195
2015-02-06 11:03:29 r, 00.00m,0000561475Hz,0000000000c,0000000.000s, 007.0C,00002195
2015-02-06 11:13:29 r, 00.00m,0000561592Hz,0000000000c,0000000.000s, 007.0C,00002195
2015-02-06 11:23:29 r, 00.00m,0000561591Hz,0000000000c,0000000.000s, 007.4C,00002195
2015-02-06 11:33:29 r, 00.00m,0000561663Hz,0000000000c,0000000.000s, 007.7C,00002195
2015-02-06 11:43:29 r, 00.00m,0000561817Hz,0000000000c,0000000.000s, 008.3C,00002195
2015-02-06 11:53:29 r, 00.00m,0000561767Hz,0000000000c,0000000.000s, 008.3C,00002195
2015-02-06 12:03:29 r, 00.00m,0000561871Hz,0000000000c,0000000.000s, 008.7C,00002195
2015-02-06 12:13:29 r, 00.00m,0000561991Hz,0000000000c,0000000.000s, 009.3C,00002195
2015-02-06 12:23:29 r, 00.00m,0000561997Hz,0000000000c,0000000.000s, 009.6C,00002195
2015-02-06 12:33:29 r, 00.00m,0000562112Hz,0000000000c,0000000.000s, 009.9C,00002195
2015-02-06 12:43:29 r, 00.00m,0000562018Hz,0000000000c,0000000.000s, 009.9C,00002195
2015-02-06 12:53:29 r, 00.00m,0000562072Hz,0000000000c,0000000.000s, 009.9C,00002195
2015-02-06 13:03:29 r, 00.00m,0000562036Hz,0000000000c,0000000.000s, 010.3C,00002195
2015-02-06 13:13:29 r, 00.00m,0000561997Hz,0000000000c,0000000.000s, 010.3C,00002195
2015-02-06 13:23:29 r, 00.00m,0000561992Hz,0000000000c,0000000.000s, 009.9C,00002195
2015-02-06 13:33:29 r, 00.00m,0000561997Hz,0000000000c,0000000.000s, 009.6C,00002195
2015-02-06 13:43:29 r, 00.00m,0000561883Hz,0000000000c,0000000.000s, 009.6C,00002195
2015-02-06 13:53:29 r, 00.00m,0000562001Hz,0000000000c,0000000.000s, 009.3C,00002195
2015-02-06 14:03:29 r, 00.00m,0000561995Hz,0000000000c,0000000.000s, 009.6C,00002195
2015-02-06 14:13:29 r, 00.00m,0000562032Hz,0000000000c,0000000.000s, 009.6C,00002195
2015-02-06 14:23:29 r, 00.00m,0000561954Hz,0000000000c,0000000.000s, 009.6C,00002195
2015-02-06 14:33:29 r, 00.00m,0000562004Hz,0000000000c,0000000.000s, 009.3C,00002195
2015-02-06 14:43:29 r, 00.00m,0000561961Hz,0000000000c,0000000.000s, 009.3C,00002195
2015-02-06 14:53:29 r, 00.00m,0000561812Hz,0000000000c,0000000.000s, 008.7C,00002195
2015-02-06 15:03:29 r, 00.00m,0000561817Hz,0000000000c,0000000.000s, 008.3C,00002195
2015-02-06 15:13:29 r, 00.00m,0000561694Hz,0000000000c,0000000.000s, 008.0C,00002195
2015-02-06 15:23:29 r, 00.00m,0000561691Hz,0000000000c,0000000.000s, 008.0C,00002195
2015-02-06 15:33:29 r, 00.00m,0000561791Hz,0000000000c,0000000.000s, 008.7C,00002195
2015-02-06 15:43:29 r, 00.00m,0000561810Hz,0000000000c,0000000.000s, 008.7C,00002195
2015-02-06 15:53:29 r, 00.00m,0000561832Hz,0000000000c,0000000.000s, 008.7C,00002195
2015-02-06 16:03:29 r, 00.00m,0000561722Hz,0000000000c,0000000.000s, 008.3C,00002195
2015-02-06 16:13:29 r, 00.00m,0000561665Hz,0000000000c,0000000.000s, 008.3C,00002195
2015-02-06 16:23:29 r, 00.00m,0000561561Hz,0000000000c,0000000.000s, 007.7C,00002195
2015-02-06 16:33:29 r, 00.00m,0000561380Hz,0000000000c,0000000.000s, 007.0C,00002195
2015-02-06 16:43:29 r, 00.00m,0000561283Hz,0000000000c,0000000.000s, 006.7C,00002195
2015-02-06 16:53:29 r, 00.00m,0000518813Hz,0000000000c,0000000.000s, 006.4C,00002195
2015-02-06 17:03:29 r, 06.38m,0000248878Hz,0000000000c,0000000.000s, 006.4C,00002195
2015-02-06 17:13:29 r, 06.59m,0000206236Hz,0000000000c,0000000.000s, 006.1C,00002195
2015-02-06 17:23:29 r, 07.02m,0000138815Hz,0000000000c,0000000.000s, 006.1C,00002195
2015-02-06 17:33:29 r, 08.08m,0000052388Hz,0000000000c,0000000.000s, 005.8C,00002195
2015-02-06 17:43:29 r, 09.46m,0000014606Hz,0000000000c,0000000.000s, 005.8C,00002195
2015-02-06 17:53:29 r, 10.90m,0000003885Hz,0000000000c,0000000.000s, 005.8C,00002195
2015-02-06 18:03:29 r, 12.58m,0000000824Hz,0000000000c,0000000.000s, 005.8C,00002195
2015-02-06 18:13:29 r, 13.62m,0000000317Hz,0000000000c,0000000.000s, 006.1C,00002195
2015-02-06 18:23:29 r, 13.66m,0000000305Hz,0000000000c,0000000.000s, 005.8C,00002195
2015-02-06 18:33:29 r, 13.50m,0000000352Hz,0000000000c,0000000.000s, 005.8C,00002195
2015-02-06 18:43:29 r, 13.42m,0000000380Hz,0000000000c,0000000.000s, 005.8C,00002195
2015-02-06 18:53:29 r, 13.48m,0000000361Hz,0000000000c,0000000.000s, 005.4C,00002195
2015-02-06 19:03:29 r, 13.55m,0000000339Hz,0000000000c,0000000.000s, 005.8C,00002195
2015-02-06 19:13:29 r, 13.62m,0000000319Hz,0000000000c,0000000.000s, 005.4C,00002195
2015-02-06 19:23:29 r, 13.58m,0000000329Hz,0000000000c,0000000.000s, 005.4C,00002195
2015-02-06 19:33:29 r, 13.66m,0000000304Hz,0000000000c,0000000.000s, 005.4C,00002195
2015-02-06 19:43:29 r, 13.78m,0000000274Hz,0000000000c,0000000.000s, 005.4C,00002195
2015-02-06 19:53:29 r, 13.69m,0000000299Hz,0000000000c,0000000.000s, 005.4C,00002195
2015-02-06 20:03:29 r, 13.73m,0000000287Hz,0000000000c,0000000.000s, 005.4C,00002195
2015-02-06 20:13:29 r, 13.89m,0000000247Hz,0000000000c,0000000.000s, 005.4C,00002195
2015-02-06 20:23:29 r, 13.93m,0000000237Hz,0000000000c,0000000.000s, 005.4C,00002195
2015-02-06 20:33:29 r, 13.93m,0000000239Hz,0000000000c,0000000.000s, 005.4C,00002195
2015-02-06 20:43:29 r, 13.89m,0000000246Hz,0000000000c,0000000.000s, 005.8C,00002195
2015-02-06 20:53:29 r, 13.83m,0000000260Hz,0000000000c,0000000.000s, 005.8C,00002195
2015-02-06 21:03:29 r, 13.90m,0000000244Hz,0000000000c,0000000.000s, 005.8C,00002195
2015-02-06 21:13:29 r, 13.86m,0000000255Hz,0000000000c,0000000.000s, 006.1C,00002195
2015-02-06 21:23:29 r, 13.76m,0000000278Hz,0000000000c,0000000.000s, 006.1C,00002195
2015-02-06 21:33:29 r, 13.75m,0000000282Hz,0000000000c,0000000.000s, 006.4C,00002195
2015-02-06 21:43:29 r, 13.76m,0000000279Hz,0000000000c,0000000.000s, 006.4C,00002195
2015-02-06 21:53:29 r, 13.75m,0000000283Hz,0000000000c,0000000.000s, 006.4C,00002195
2015-02-06 22:03:29 r, 13.58m,0000000329Hz,0000000000c,0000000.000s, 006.4C,00002195
2015-02-06 22:13:29 r, 13.54m,0000000340Hz,0000000000c,0000000.000s, 006.7C,00002195
2015-02-06 22:23:29 r, 13.57m,0000000333Hz,0000000000c,0000000.000s, 006.7C,00002195
2015-02-06 22:33:29 r, 13.63m,0000000314Hz,0000000000c,0000000.000s, 007.0C,00002195
2015-02-06 22:43:29 r, 13.64m,0000000313Hz,0000000000c,0000000.000s, 007.0C,00002195
2015-02-06 22:53:29 r, 13.64m,0000000312Hz,0000000000c,0000000.000s, 006.7C,00002195
2015-02-06 23:03:29 r, 13.72m,0000000291Hz,0000000000c,0000000.000s, 007.0C,00002195
2015-02-06 23:13:29 r, 13.73m,0000000287Hz,0000000000c,0000000.000s, 007.0C,00002195
2015-02-06 23:23:29 r, 13.73m,0000000287Hz,0000000000c,0000000.000s, 006.7C,00002195
2015-02-06 23:33:29 r, 13.72m,0000000289Hz,0000000000c,0000000.000s, 007.0C,00002195
2015-02-06 23:43:29 r, 13.70m,0000000295Hz,0000000000c,0000000.000s, 007.0C,00002195
2015-02-06 23:53:29 r, 13.74m,0000000285Hz,0000000000c,0000000.000s, 007.0C,00002195
